[[{"header":{"parameterUnit":"m.s-1","parameterCategory":1,"la1":30.2991,"la2":30.254,"lo1":-89.0895,"lo2":-89.0444,"dy":0.0017,"dx":0.0017,"nx":28,"ny":28,"refTime":"2024-03-05T03:00:00:Z","depth":0,"parameterNumber":2,"parameterNumberName":"U-component_of_WINDS"},"data":[0,0,0,0,0,0,0,0,0,0,0,0,0,0,0,0,0,0,0,0,0,0,0,0,0,0,0,0,0,0,0,0,0,0,0,0,0,0,0,0,0,0,0,0,0,0,0,0,0,0,0,0,0,0,0,0,0,0,-5.0949,-5.0951,0,-5.1176,-5.1178,-5.1181,-5.1205,-5.1203,-5.12,-5.1198,-5.143,-5.1438,-5.1446,0,0,0,0,0,0,0,0,0,0,0,0,0,-5.0538,-5.0545,-5.0949,-5.0951,-5.0954,-5.1175,-5.1179,-5.1182,-5.1205,-5.1202,-5.12,-5.1197,-5.1427,-5.1437,-5.1447,0,0,0,0,0,0,0,0,0,0,0,0,0,-5.0736,-5.0548,-5.0948,-5.0993,-5.0999,-5.1175,-5.1179,-5.1183,-5.1206,-5.1202,-5.1199,-5.1196,-5.1424,-5.1436,-5.1448,-5.1595,0,0,-5.1487,-5.1492,0,0,0,0,0,0,0,0,-5.0724,-5.0751,-5.0983,-5.099,-5.0997,-5.1159,-5.1119,-5.1321,-5.1207,-5.1127,-5.1198,-5.1194,-5.1342,-5.1361,-5.1412,-5.1606,-5.1616,-5.1488,-5.1495,-5.1501,-5.1504,0,0,0,0,0,0,0,-5.0711,-5.0741,-5.1038,-5.0987,-5.0995,-5.1002,-5.1027,-5.1157,-5.1252,-5.1134,-5.1136,-5.1163,-5.1346,-5.14,-5.1417,-5.1619,-5.1487,-5.1499,-5.1506,-5.1511,-5.195,-5.1954,0,0,0,0,0,0,-5.0689,-5.073,-5.1031,-5.1045,-5.085,-5.1013,-5.104,-5.111,-5.125,-5.1268,-5.1166,-5.1163,-5.138,-5.1403,-5.1425,-5.1608,-5.1501,-5.1512,-5.152,-5.1945,-5.195,-5.1955,0,0,0,0,0,0,-5.068,-5.0715,-5.1022,-5.0888,-5.0928,-5.1023,-5.1102,-5.1117,-5.117,-5.1274,-5.1291,-5.1203,-5.1378,-5.1408,-5.1554,-5.1616,-5.1518,-5.1529,-5.1941,-5.1947,-5.1953,-5.1973,0,0,0,0,0,0,-5.0668,-5.0712,-5.0767,-5.0889,-5.0935,-5.1146,-5.1106,-5.1124,-5.1192,-5.1191,-5.1314,-5.1331,-5.1378,-5.1535,-5.1566,-5.1632,-5.1539,-5.1935,-5.1943,-5.1951,-5.1967,-5.198,-5.199,0,0,0,0,0,-5.0653,-5.0763,-5.077,-5.0806,-5.1006,-5.1149,-5.1175,-5.1227,-5.1197,-5.1254,-5.1322,-5.1327,-5.1605,-5.155,-5.1585,-5.1655,-5.1932,-5.1941,-5.195,-5.1962,-5.1977,-5.199,0,0,0,0,0,0,-5.0645,-5.078,-5.0789,-5.0942,-5.1034,-5.1153,-5.1226,-5.124,-5.1342,-5.1337,-5.1397,-5.1425,-5.1568,-5.1627,-5.1563,-5.1807,-5.1765,-5.1782,-5.1763,-5.1778,-5.1789,-5.1771,-5.1549,0,0,0,0,0,-5.0661,-5.0765,-5.0878,-5.1002,-5.1048,-5.113,-5.1194,-5.1226,-5.1324,-5.1362,-5.144,-5.1535,-5.1644,-5.1714,-5.182,-5.1977,-5.2005,-5.2044,-5.2055,-5.2063,-5.2077,-5.2167,-5.2186,-5.1986,-5.1986,-5.1985,0,0,-5.0695,-5.0782,-5.0844,-5.1003,-5.1078,-5.1186,-5.1162,-5.1276,-5.1357,-5.138,-5.1522,-5.1583,-5.1693,-5.1846,-5.1917,-5.1899,-5.2139,-5.2075,-5.2081,-5.209,-5.2178,-5.2197,-5.2214,-5.1992,-5.1991,-5.199,0,0,-5.0812,-5.0888,-5.1001,-5.1078,-5.1193,-5.1247,-5.1274,-5.1392,-5.1434,-5.1579,-5.1599,-5.1697,-5.1883,-5.1961,-5.2025,-5.2178,-5.2187,-5.2211,-5.2269,-5.2356,-5.2371,-5.2386,-5.2441,-5.246,-5.2224,-5.2224,-5.2225,0,-5.0839,-5.1002,-5.1057,-5.1172,-5.1242,-5.127,-5.1386,-5.1458,-5.1601,-5.165,-5.1628,-5.1865,-5.1941,-5.2113,-5.2151,-5.2202,-5.2236,-5.2196,-5.2365,-5.238,-5.2394,-5.2447,-5.2468,-5.2227,-5.2226,-5.2226,-5.2226,0,-5.1031,-5.1144,-5.1221,-5.1361,-5.144,-5.1554,-5.1628,-5.1703,-5.173,-5.1787,-5.1935,-5.2028,-5.2155,-5.2199,-5.2225,-5.2377,-5.2362,-5.2352,-5.2312,-5.2414,-5.2465,-5.2486,-5.223,-5.2229,-5.2228,-5.2228,0,0,-5.1145,-5.1317,-5.1344,-5.1409,-5.154,-5.1629,-5.1746,-5.1871,-5.1934,-5.2034,-5.2135,-5.2294,-5.2287,-5.236,-5.2396,-5.2473,-5.259,-5.2454,-5.2458,-5.2476,-5.2764,-5.277,-5.2793,-5.2598,-5.2602,-5.2605,-5.2755,0,-5.1276,-5.1486,-5.1541,-5.1719,-5.1825,-5.1856,-5.1959,-5.2051,-5.2109,-5.2209,-5.2273,-5.2385,-5.2366,-5.2411,-5.2489,-5.2559,-5.2648,-5.2549,-5.2693,-5.2697,-5.2663,-5.282,-5.2826,-5.2963,-5.2776,-5.2779,-5.2782,0,-5.1457,-5.1562,-5.1751,-5.1872,-5.1918,-5.2009,-5.213,-5.2225,-5.2332,-5.2369,-5.2453,-5.2483,-5.2609,-5.2564,-5.2738,-5.267,-5.2733,-5.2777,-5.2783,-5.2797,-5.2744,-5.2838,-5.3007,-5.3028,-5.2814,-5.2811,-5.2809,0,-5.1522,-5.171,-5.1849,-5.1903,-5.2047,-5.2111,-5.2175,-5.2278,-5.2351,-5.2457,-5.2506,-5.2625,-5.269,-5.2783,-5.2845,-5.2807,-5.3016,-5.2975,-5.3051,-5.3049,-5.3091,-5.3088,-5.3273,-5.3133,-5.3133,-5.3133,-5.3132,0,-5.1662,-5.1777,-5.188,-5.1965,-5.2095,-5.2159,-5.2287,-5.2351,-5.2444,-5.2543,-5.2578,-5.267,-5.2748,-5.2852,-5.2902,-5.304,-5.3069,-5.3104,-5.3115,-5.31,-5.3096,-5.3141,-5.3133,-5.3138,-5.3137,-5.3136,-5.3135,0,-5.1755,-5.1829,-5.1982,-5.2107,-5.2142,-5.2233,-5.2341,-5.2425,-5.2486,-5.2611,-5.2644,-5.274,-5.2864,-5.2937,-5.3093,-5.3127,-5.3281,-5.3288,-5.3244,-5.325,-5.3321,-5.3314,-5.3541,-5.3575,-5.3413,-5.3414,-5.3415,0,-5.1839,-5.1929,-5.2065,-5.2134,-5.2199,-5.2309,-5.2385,-5.2453,-5.253,-5.2661,-5.2731,-5.2858,-5.2962,-5.316,-5.3244,-5.3365,-5.3375,-5.3447,-5.3393,-5.3376,-5.3377,-5.3371,-5.3381,-5.3455,-5.3457,-5.3458,-5.3459,0,-5.1981,-5.2015,-5.2122,-5.2243,-5.2333,-5.2432,-5.253,-5.2585,-5.267,-5.2755,-5.2883,-5.2965,-5.3127,-5.3253,-5.3381,-5.3448,-5.3469,-5.3476,-5.35,-5.3484,-5.3455,-5.3473,-5.3269,-5.3469,-5.3468,-5.3468,-5.3467,-5.3467,-5.2073,-5.2155,-5.2264,-5.2384,-5.2466,-5.2558,-5.2644,-5.2717,-5.2825,-5.2962,-5.2997,-5.3132,-5.3241,-5.3416,-5.3486,-5.3594,-5.3582,-5.3616,-5.3625,-5.3632,-5.3634,-5.3439,-5.3617,-5.3617,-5.3617,-5.3617,-5.3617,0,-5.2217,-5.229,-5.24,-5.2537,-5.2632,-5.2645,-5.2755,-5.2834,-5.2952,-5.3052,-5.3156,-5.3305,-5.3429,-5.3524,-5.3651,-5.3719,-5.3732,-5.375,-5.3746,-5.3761,-5.3637,-5.3604,-5.3738,-5.3738,-5.3738,-5.3738,-5.3738,-5.3738,-5.2303,-5.2443,-5.249,-5.2672,-5.2745,-5.2878,-5.294,-5.3026,-5.3107,-5.3272,-5.3375,-5.3437,-5.3536,-5.3672,-5.3786,-5.3812,-5.3857,-5.3874,-5.39,-5.3783,-5.3769,-5.3757,-5.3726,-5.3883,-5.3883,-5.4015,-5.4016,-5.4017]},{"header":{"parameterUnit":"m.s-1","parameterCategory":1,"la1":30.2991,"la2":30.254,"lo1":-89.0895,"lo2":-89.0444,"dy":0.0017,"dx":0.0017,"nx":28,"ny":28,"refTime":"2024-03-05T03:00:00:Z","depth":0,"parameterNumber":3,"parameterNumberName":"V-component_of_WINDS"},"data":[0,0,0,0,0,0,0,0,0,0,0,0,0,0,0,0,0,0,0,0,0,0,0,0,0,0,0,0,0,0,0,0,0,0,0,0,0,0,0,0,0,0,0,0,0,0,0,0,0,0,0,0,0,0,0,0,0,0,4.1049,4.1051,0,4.1189,4.119,4.1192,4.1221,4.122,4.1219,4.1218,4.1359,4.1363,4.1368,0,0,0,0,0,0,0,0,0,0,0,0,0,4.081,4.0814,4.1049,4.1051,4.1053,4.1189,4.119,4.1192,4.1221,4.122,4.1219,4.1218,4.1357,4.1363,4.1368,0,0,0,0,0,0,0,0,0,0,0,0,0,4.0928,4.0815,4.1049,4.1084,4.1088,4.1188,4.1191,4.1193,4.1222,4.122,4.1218,4.1217,4.1355,4.1362,4.1369,4.1444,0,0,4.1391,4.1394,0,0,0,0,0,0,0,0,4.0921,4.0936,4.1077,4.1081,4.1087,4.1186,4.1158,4.1277,4.1222,4.1171,4.1218,4.1216,4.1302,4.1314,4.1343,4.145,4.1456,4.1391,4.1396,4.1399,4.1401,0,0,0,0,0,0,0,4.0913,4.0931,4.1104,4.1079,4.1085,4.1093,4.1108,4.118,4.1244,4.1175,4.1178,4.1194,4.1305,4.1336,4.1347,4.1459,4.1391,4.1397,4.1402,4.1405,4.164,4.1642,0,0,0,0,0,0,4.0898,4.0924,4.11,4.1109,4.0998,4.1098,4.1115,4.1156,4.1243,4.1255,4.1195,4.1195,4.1325,4.1338,4.1352,4.1449,4.1399,4.1405,4.1409,4.1638,4.164,4.1642,0,0,0,0,0,0,4.0893,4.0914,4.1094,4.1017,4.1041,4.1104,4.1149,4.1159,4.1191,4.1258,4.1269,4.1216,4.1324,4.1342,4.1422,4.1454,4.1408,4.1415,4.1635,4.1638,4.1641,4.1641,0,0,0,0,0,0,4.0886,4.0912,4.094,4.1017,4.1045,4.1162,4.1151,4.1163,4.1203,4.1204,4.128,4.1291,4.1324,4.1411,4.1429,4.1463,4.142,4.1633,4.1637,4.164,4.1638,4.1643,4.1648,0,0,0,0,0,4.0877,4.0933,4.0941,4.0963,4.1081,4.1164,4.1179,4.1217,4.1205,4.1236,4.1279,4.1289,4.1447,4.1419,4.144,4.1476,4.1631,4.1636,4.164,4.1636,4.1642,4.1648,0,0,0,0,0,0,4.0856,4.0943,4.0954,4.1036,4.1092,4.1168,4.1207,4.1221,4.1281,4.128,4.1323,4.134,4.1419,4.1455,4.1422,4.1555,4.1539,4.1547,4.1529,4.1535,4.154,4.153,4.1426,0,0,0,0,0,4.0861,4.092,4.0994,4.1059,4.1087,4.1142,4.1179,4.1204,4.1264,4.1287,4.1337,4.1394,4.1458,4.1498,4.156,4.1644,4.1663,4.1679,4.1684,4.1687,4.1695,4.1746,4.1756,4.1657,4.1657,4.1657,0,0,4.0871,4.0927,4.0961,4.1056,4.1103,4.1165,4.1162,4.1226,4.1273,4.1297,4.1377,4.1416,4.1483,4.1567,4.1606,4.1599,4.1726,4.1693,4.1695,4.1701,4.1752,4.1761,4.1769,4.166,4.166,4.1659,0,0,4.0923,4.0969,4.1031,4.1079,4.1151,4.1188,4.1203,4.1278,4.1305,4.1386,4.1407,4.1463,4.157,4.1619,4.1658,4.1733,4.1745,4.1751,4.1777,4.1826,4.1834,4.1841,4.1872,4.1882,4.1758,4.1758,4.1758,0,4.0927,4.1021,4.1061,4.1126,4.1169,4.1195,4.126,4.1304,4.1391,4.1421,4.1412,4.1551,4.1597,4.1695,4.1714,4.1743,4.1764,4.1743,4.183,4.1838,4.1845,4.1874,4.1885,4.1759,4.1759,4.1759,4.1759,0,4.1024,4.1089,4.113,4.1217,4.1264,4.1328,4.1379,4.1423,4.1444,4.1482,4.1567,4.1625,4.1701,4.1726,4.1745,4.1828,4.1822,4.1821,4.1806,4.1854,4.1883,4.1894,4.176,4.1759,4.1759,4.1759,0,0,4.1064,4.1175,4.119,4.1232,4.1314,4.1366,4.1432,4.1508,4.1546,4.1606,4.1665,4.1757,4.1759,4.1803,4.1829,4.1873,4.1933,4.1867,4.187,4.188,4.2032,4.2034,4.2046,4.1942,4.1944,4.1946,4.2027,0,4.1128,4.1248,4.1289,4.1389,4.1452,4.148,4.1539,4.1597,4.1635,4.1695,4.1737,4.1803,4.1798,4.1826,4.187,4.1916,4.1965,4.1911,4.1999,4.2002,4.1984,4.206,4.2061,4.2135,4.2038,4.204,4.2042,0,4.1218,4.1282,4.139,4.1469,4.1497,4.1549,4.1625,4.168,4.1748,4.1773,4.1825,4.1849,4.1922,4.1902,4.2004,4.1967,4.2006,4.2035,4.2038,4.2049,4.2026,4.2076,4.2159,4.2171,4.2059,4.2057,4.2056,0,4.124,4.1354,4.1434,4.1469,4.1562,4.1599,4.1639,4.1706,4.175,4.1816,4.1846,4.1919,4.1959,4.2015,4.206,4.204,4.216,4.2142,4.2185,4.2184,4.221,4.2208,4.2303,4.223,4.223,4.223,4.223,0,4.1309,4.1374,4.1447,4.1496,4.1572,4.1618,4.1691,4.1733,4.1793,4.1853,4.188,4.1936,4.1989,4.2053,4.2087,4.217,4.2186,4.2211,4.222,4.221,4.2207,4.2237,4.2234,4.2233,4.2232,4.2232,4.2231,0,4.1347,4.1398,4.1488,4.157,4.1593,4.1645,4.1716,4.1767,4.1807,4.1883,4.1903,4.1967,4.2044,4.2093,4.2189,4.2213,4.2304,4.231,4.2282,4.2287,4.2328,4.2325,4.2447,4.2467,4.2378,4.2379,4.238,0,4.1388,4.144,4.1529,4.1572,4.1613,4.1681,4.1728,4.1776,4.1824,4.1907,4.1948,4.2027,4.2092,4.2213,4.2269,4.2344,4.2354,4.2392,4.2365,4.2355,4.2358,4.2356,4.2363,4.2396,4.2397,4.2397,4.2398,0,4.1457,4.1481,4.1548,4.1625,4.168,4.1742,4.1805,4.1838,4.1898,4.195,4.2029,4.208,4.2181,4.226,4.2341,4.2384,4.2402,4.2406,4.2421,4.2412,4.2395,4.2409,4.2297,4.2403,4.2403,4.2402,4.2402,4.2402,4.1501,4.155,4.1622,4.1696,4.1749,4.1808,4.1861,4.191,4.1977,4.2063,4.2088,4.2171,4.2242,4.2353,4.2398,4.2465,4.2461,4.248,4.2486,4.2491,4.2494,4.2383,4.2479,4.2479,4.2479,4.2479,4.2479,0,4.1575,4.1623,4.1691,4.1779,4.1839,4.1852,4.1923,4.1972,4.2045,4.211,4.2175,4.2268,4.2346,4.2409,4.2489,4.2531,4.2542,4.2551,4.255,4.256,4.2491,4.2472,4.2542,4.2542,4.2542,4.2541,4.2541,4.2541,4.162,4.1705,4.1738,4.1851,4.1899,4.1982,4.2022,4.2078,4.213,4.2233,4.2299,4.234,4.2405,4.2491,4.2564,4.2581,4.261,4.2618,4.2637,4.2571,4.2564,4.2558,4.2541,4.2624,4.2624,4.2702,4.2703,4.2703]}]]